Date,TemperatureHighF,TemperatureAvgF,TemperatureLowF,DewpointHighF,DewpointAvgF,DewpointLowF,HumidityHigh,HumidityAvg,HumidityLow,PressureMaxIn,PressureMinIn,WindSpeedMaxMPH,WindSpeedAvgMPH,GustSpeedMaxMPH,PrecipitationSumIn
2012-12-1,32.0,30.8,28.5,31.2,29.9,27.5,97,97,96,30.13,29.66,20,4,26,0.01
2012-12-2,33.6,32.2,31.7,32.8,31.5,31.0,98,97,97,29.88,29.68,20,3,23,0.00
2012-12-3,42.3,37.2,30.2,41.8,35.8,24.9,100,95,79,29.68,29.19,29,6,30,0.00
2012-12-4,30.0,16.7,12.3,24.5,11.5,7.0,86,80,76,30.62,29.44,30,8,30,0.00
2012-12-5,29.4,17.9,1.8,22.3,13.7,-1.8,90,83,73,30.75,29.86,29,4,29,0.00
2012-12-6,35.8,29.3,19.4,29.8,24.3,15.1,91,82,67,29.88,29.51,23,7,31,0.00
2012-12-7,19.6,15.9,7.4,17.5,11.1,3.7,92,81,78,30.32,29.88,22,4,22,0.00
2012-12-8,20.5,11.1,-5.0,18.0,5.5,-8.8,91,78,57,30.45,30.28,11,0,13,0.00
2012-12-9,22.8,18.9,10.4,20.8,16.6,7.6,92,91,88,30.30,30.13,11,2,11,0.04
2012-12-10,13.3,8.8,5.3,10.9,5.8,2.2,90,87,85,30.15,29.96,9,1,11,0.01
2012-12-11,16.1,9.5,3.1,13.9,6.0,-0.9,92,85,80,30.25,29.84,14,3,18,0.00
2012-12-12,22.8,11.3,-3.3,20.8,8.7,-7.2,100,89,82,30.41,30.00,17,2,17,0.00
2012-12-13,22.4,16.2,11.1,20.4,14.0,8.2,93,91,88,30.37,30.01,11,2,11,0.00
2012-12-14,27.3,20.8,12.6,26.1,18.8,10.1,95,92,84,30.41,30.01,21,3,21,0.00
2012-12-15,33.3,30.8,27.3,31.6,29.5,25.8,96,95,93,30.01,29.41,15,4,17,0.00
2012-12-16,32.4,26.8,18.6,31.4,25.7,16.9,97,95,93,29.67,29.39,11,1,11,0.08
2012-12-17,18.6,17.3,16.0,16.9,15.4,14.1,93,92,92,29.81,29.66,7,1,10,0.00
2012-12-18,21.5,17.5,12.8,19.8,15.6,10.1,93,92,89,29.92,29.75,5,0,5,0.00
2012-12-19,26.3,24.0,20.3,24.6,22.2,18.6,95,93,90,30.02,29.84,9,0,11,0.00
2012-12-20,23.3,18.5,8.3,20.8,16.7,5.7,100,93,89,30.13,29.94,17,4,18,0.00
2012-12-21,10.5,3.4,-5.5,7.7,0.5,-9.1,99,87,83,30.60,30.13,15,2,16,0.00
2012-12-22,19.6,6.6,-6.0,15.5,3.2,-9.7,91,86,77,30.52,30.14,19,3,20,0.00
2012-12-23,10.7,5.2,1.3,5.9,2.0,-1.7,98,86,80,30.43,30.25,16,4,20,0.00
2012-12-24,2.8,-2.0,-5.9,-0.4,-5.3,-9.5,87,86,84,30.72,30.32,11,3,13,0.00
2012-12-25,3.2,-5.9,-11.2,0.0,-9.5,-15.4,86,84,81,31.09,30.70,9,2,11,0.00
2012-12-26,9.9,-0.9,-14.4,7.3,-4.1,-18.6,89,86,81,30.99,30.67,7,0,9,0.00
2012-12-27,16.6,8.4,-6.5,12.9,5.4,-10.3,89,87,83,30.72,30.40,4,0,4,0.00
2012-12-28,20.7,12.9,7.7,16.2,9.4,4.3,89,86,77,30.42,30.19,6,0,7,0.01
2012-12-29,20.0,12.6,3.3,16.5,9.5,-0.4,90,87,83,30.22,30.12,10,1,12,0.01
2012-12-30,15.9,9.2,-2.3,13.3,5.8,-6.3,98,86,79,30.39,29.97,16,2,17,0.00
2012-12-31,14.1,-0.2,-9.0,11.5,-4.1,-12.8,92,83,75,30.66,29.96,19,5,21,0.00